Location: Newark
(55.5030°N, 22.7200°E)
Time: 20:22:54
(UTC+00:00)

SR - Visible Passes

Search period start: 25 May 2020 00:00
Search period end: 04 June 2020 00:00
Orbit: 581 x 874 km, 66.7° (Epoch: 24 May)

Date Brightness Start Highest point End Pass type
(mag) Time Alt. Az. Time Alt. Az. Time Alt. Az.
25 May ? 00:32:51 10° WNW 00:36:03 20° WSW 00:38:57 11° SSW visible
25 May ? 20:17:59 10° NW 20:21:46 23° NNE 20:25:20 10° ENE visible
25 May ? 22:00:19 10° NW 22:04:48 50° NE 22:09:00 10° ESE visible
25 May ? 23:42:38 10° NW 23:46:42 35° WSW 23:49:44 15° S visible
26 May ? 21:10:36 10° NW 21:14:51 35° NNE 21:18:51 10° E visible
26 May ? 22:52:44 10° NW 22:57:10 63° SW 23:00:39 15° SSE visible
27 May ? 00:36:57 10° W 00:38:14 11° WSW 00:39:31 10° WSW visible
27 May ? 20:20:50 10° NW 20:24:48 27° NNE 20:28:32 10° E visible
27 May ? 22:02:58 10° NW 22:07:31 77° NE 22:11:40 11° SE visible
27 May ? 23:45:43 10° WNW 23:49:01 21° WSW 23:51:01 15° SSW visible
28 May ? 21:13:16 10° NW 21:17:42 48° NE 21:21:53 10° ESE visible
28 May ? 22:55:33 10° NW 22:59:38 37° WSW 23:02:08 19° S visible
29 May ? 20:23:33 10° NW 20:27:45 34° NNE 20:31:42 10° E visible
29 May ? 22:05:40 10° NW 22:10:07 66° SW 22:13:17 17° SSE visible
29 May ? 23:49:37 10° W 23:51:13 12° WSW 23:52:40 10° SW visible
30 May ? 21:15:55 10° NW 21:20:26 74° NE 21:24:31 11° SE visible
30 May ? 22:58:36 10° WNW 23:01:58 22° WSW 23:03:53 16° SSW visible
31 May ? 20:26:12 10° NW 20:30:36 46° NE 20:34:46 10° ESE visible
31 May ? 22:08:28 10° NW 22:12:35 39° WSW 22:15:09 19° S visible
01 Jun ? 21:18:36 10° NW 21:23:03 70° SW 21:26:28 15° SSE visible
01 Jun ? 23:02:20 10° W 23:04:12 13° WSW 23:05:51 10° SW visible
02 Jun ? 20:28:51 10° NW 20:33:21 70° NE 20:37:36 10° SE visible
02 Jun ? 22:11:29 10° WNW 22:14:56 23° WSW 22:17:12 15° SSW visible
03 Jun ? 21:21:23 10° NW 21:25:32 41° WSW 21:28:35 16° S visible
